Location: Foligno
(42.9600°N, 12.7050°E)
Time: 17:43:50
(UTC+02:00)

ISS - Pass Details

Date: 26 May 2020
Orbit: 417 x 420 km, 51.6° (Epoch: 26 May)

Event Time Altitude Azimuth Distance (km) Brightness Sun altitude
Rises 23:57:02 0° 304° (NW) 2,367 0.8 -23.9°
Reaches altitude 10° 23:59:09 10° 307° (NW) 1,501 -0.3 -24.0°
Enters shadow 00:01:21 37° 321° (NW) 676 -2.3 -24.2°
